Abilene Dyess, TX

9:48 PM CDT on April 25, 2017 (GMT -0500)
Dyess Air Force Base

Weather History for KDYS - December, 2012

Change the Weather History Date:

Monday, December 10, 2012

  Actual Average Record
Temperature  
Mean Temperature 30 °F -  
Max Temperature 40 °F 60 °F 78 °F (1996)
Min Temperature 19 °F 36 °F 16 °F (2013)
Degree Days  
Heating Degree Days 34    
Moisture  
Dew Point 14 °F    
Average Humidity 55    
Maximum Humidity 86    
Minimum Humidity 34    
Precipitation  
Precipitation 0.00 in - - ()
Sea Level Pressure  
Sea Level Pressure 30.18 in    
Wind  
Wind Speed 13 mph (NNW)    
Max Wind Speed 21 mph    
Max Gust Speed 26 mph    
Visibility 10 miles    
Events Rain    
Averages and records for this station are not official NWS values.
T = Trace of Precipitation, MM = Missing Value Source: NWS Daily Summary

Daily Weather History Graph

Daily Weather History Graph

Search for Another Location

Airport or City:

Trip Planner

Search our weather history database for the weather conditions in past years. The results will help you decide how hot, cold, wet, or windy it might be!

Date:

Astronomy

Dec. 10, 2012 Rise Set
Actual Time 7:30 AM CST 5:34 PM CST
Civil Twilight 7:03 AM CST 6:01 PM CST
Nautical Twilight 6:32 AM CST 6:32 PM CST
Astronomical Twilight 6:02 AM CST 7:02 PM CST
Moon 4:22 AM CST (12/10) 3:20 PM CST (12/10)
Length of Visible Light 10h 58m
Length of Day
10h 04m
Waning Crescent, 10% of the Moon is Illuminated
Dec 10
Waning Crescent
Dec 13
New
Dec 19
First Quarter
Dec 28
Full
Jan 4
Last Quarter

Hourly Weather History & Observations

Time (CST) Temp. Windchill Dew Point Humidity Pressure Visibility Wind Dir Wind Speed Gust Speed Precip Events Conditions
12:55 AM 32.0 °F 19.8 °F 7.2 °F 35% 30.20 in 10.0 mi North 20.7 mph 26.5 mph N/A   Clear
1:55 AM 31.1 °F 20.1 °F 7.2 °F 37% 30.21 in 10.0 mi North 16.1 mph - N/A   Partly Cloudy
2:13 AM 32.0 °F 22.1 °F 6.8 °F 35% 30.19 in 10.0 mi North 13.8 mph 20.7 mph N/A   Mostly Cloudy
2:22 AM 32.0 °F 23.0 °F 6.8 °F 35% 30.21 in 10.0 mi North 11.5 mph - N/A   Overcast
2:55 AM 32.5 °F 22.7 °F 7.2 °F 35% 30.21 in 10.0 mi North 13.8 mph - 0.00 in   Overcast
2:59 AM 32.0 °F 22.1 °F 6.8 °F 35% 30.21 in 10.0 mi North 13.8 mph - N/A Rain Light Rain
3:46 AM 28.4 °F 18.5 °F 24.8 °F 86% 30.22 in 9.0 mi North 11.5 mph - N/A   Mostly Cloudy
3:51 AM 28.4 °F 17.5 °F 24.8 °F 86% 30.22 in 10.0 mi NNW 13.8 mph - N/A   Mostly Cloudy
3:55 AM 27.9 °F 17.3 °F 24.3 °F 86% 30.22 in 10.0 mi NNW 12.7 mph - 0.00 in   Mostly Cloudy
4:43 AM 28.4 °F 18.0 °F 23.0 °F 80% 30.21 in 10.0 mi NNW 12.7 mph - N/A   Overcast
4:55 AM 27.1 °F 18.2 °F 23.0 °F 84% 30.21 in 10.0 mi NNW 9.2 mph - N/A   Overcast
5:55 AM 26.6 °F 17.5 °F 21.7 °F 82% 30.21 in 10.0 mi NNW 9.2 mph - N/A   Partly Cloudy
6:55 AM 24.4 °F 16.5 °F 20.1 °F 84% 30.22 in 10.0 mi NW 6.9 mph - N/A   Clear
7:55 AM 24.8 °F 14.0 °F 18.1 °F 76% 30.23 in 10.0 mi NNW 11.5 mph - N/A   Clear
8:55 AM 27.7 °F 15.2 °F 13.6 °F 56% 30.23 in 10.0 mi NNW 17.3 mph - N/A   Clear
9:55 AM 30.0 °F 18.3 °F 10.4 °F 44% 30.25 in 10.0 mi North 17.3 mph - N/A   Clear
10:55 AM 32.0 °F 21.6 °F 13.1 °F 46% 30.24 in 10.0 mi North 15.0 mph 19.6 mph N/A   Clear
11:55 AM 34.2 °F 25.2 °F 15.4 °F 46% 30.22 in 10.0 mi North 12.7 mph 18.4 mph N/A   Clear
12:55 PM 36.5 °F 28.7 °F 16.9 °F 45% 30.18 in 10.0 mi NNW 11.5 mph - N/A   Clear
1:55 PM 37.8 °F 31.3 °F 16.5 °F 42% 30.14 in 10.0 mi North 9.2 mph - N/A   Clear
2:55 PM 39.4 °F 34.5 °F 15.6 °F 38% 30.11 in 9.0 mi NNW 6.9 mph - N/A   Clear
3:55 PM 40.1 °F 36.9 °F 13.8 °F 34% 30.10 in 10.0 mi North 4.6 mph - N/A   Clear
4:55 PM 39.9 °F 36.7 °F 13.3 °F 34% 30.10 in 10.0 mi NW 4.6 mph - N/A   Clear
5:55 PM 35.2 °F - 12.7 °F 40% 30.10 in 10.0 mi Calm Calm - N/A   Clear
6:55 PM 28.8 °F - 11.1 °F 48% 30.12 in 10.0 mi Calm Calm - N/A   Clear
7:55 PM 27.5 °F 21.1 °F 11.3 °F 51% 30.12 in 10.0 mi SW 5.8 mph - N/A   Clear
8:55 PM 24.1 °F 16.0 °F 12.4 °F 61% 30.13 in 10.0 mi SW 6.9 mph - N/A   Clear
9:55 PM 21.2 °F 16.4 °F 11.8 °F 67% 30.14 in 10.0 mi SSW 3.5 mph - N/A   Clear
10:55 PM 22.6 °F 16.5 °F 11.7 °F 63% 30.12 in 10.0 mi SW 4.6 mph - N/A   Clear
11:55 PM 19.9 °F 12.1 °F 11.1 °F 69% 30.12 in 10.0 mi SSW 5.8 mph - N/A   Clear